Location: Barcelona
(41.3829°N, 2.1774°E)
Time: 13:23:19
(UTC+00:00)

ISS - Pass Details

Date: 11 July 2024
Orbit: 410 x 424 km, 51.6° (Epoch: 14 July)

Event Time Altitude Azimuth Distance (km) Brightness Sun altitude
Rises 00:13:01 0° 305° (NW) 2,344 0.4 -26.4°
Reaches altitude 10° 00:15:47 10° 330° (NNW) 1,483 -0.3 -26.4°
Maximum altitude 00:17:47 15° 7° (N) 1,221 -0.5 -26.4°
Drops below altitude 10° 00:19:48 10° 45° (NE) 1,486 -0.4 -26.3°
Sets 00:22:35 0° 70° (ENE) 2,350 0.4 -26.3°
